ION Charismatic Carlus

operational
NORAD ID: 64575 Int'l Des: 2025-135 Owner: DORBIT Country: I
LEOCIRCULARRETROGRADESSO

ION Charismatic Carlusについて

説明を読み込み中...

リアルタイム位置

3D地球を読み込み中...

次回通過

高度履歴

Altitude vs Time

uPlot chart will show altitude changes over time

軌道要素

1 64575U 25135AZ 26061.03190404 .00001111 00000-0 10842-3 0 9991
2 64575 97.7642 177.1731 0011341 291.7615 68.2397 14.94404897 37928
Epoch: Mar 2, 2026 • Age: 38 hours

現在のステータス

高度 597.6 km
速度 7.56 km/s
衛星直下点 52.80°N, 157.59°E
打ち上げ日 Jun 23, 2025
運用期間 0.6 years
タイプ other

技術仕様

分類 Payload
質量 150.00 kg
乾燥質量 150.00 kg
総質量 220.00 kg
長さ 0.40 m
直径 0.40 m
スパン 0.40 m
形状 Box
製造者 DORBIT
バスタイプ ION-SC
フェーズステータス In Orbit
所有者/国 DORBIT/I

大規模コンステレーション

Loading constellations...